Location: Cosy Dell
(34.2789°N, 117.4537°W)
Time: 10:30:10
(UTC+00:00)

NOSS 3-2 (C) - Pass Details

Date: 14 July 2020
Orbit: 801 x 1412 km, 63.4° (Epoch: 05 August)

Event Time Altitude Azimuth Distance (km) Brightness Sun altitude
Exits shadow 11:06:33 22° 186° (S) 1,732 4.4 -18.1°
Maximum altitude 11:10:02 56° 115° (ESE) 1,015 3.7 -17.6°
Drops below altitude 10° 11:15:56 10° 39° (NE) 2,651 7.1 -16.7°
Sets 11:18:41 0° 35° (NE) 3,687 8.1 -16.2°
